Photometre #749[NE_1.6_Dp] Strzyzow AOT

File : 20200927_749.hum

27/09/2020,05:23:19,TEMP=7.1,BA=5.64,STAT.A,ExtBa=13.60
27/09/2020,05:27:22,TEMP=7.2,BA=5.64,STAT.A,ExtBa=13.60
27/09/2020,05:32:07,TEMP=7.3,BA=5.52,STAT.A,ExtBa=13.60
27/09/2020,05:37:47,TEMP=7.3,BA=5.52,STAT.A,ExtBa=13.60
27/09/2020,05:44:38,TEMP=7.2,BA=5.48,STAT.A,ExtBa=13.60
27/09/2020,05:53:07,TEMP=7.2,BA=5.64,STAT.A,ExtBa=13.60
27/09/2020,06:03:55,TEMP=7.2,BA=5.64,STAT.B,ExtBa=13.70
27/09/2020,06:09:06,TEMP=7.3,BA=5.64,STAT.A,ExtBa=13.60
27/09/2020,06:14:56,TEMP=7.3,BA=5.44,STAT.A,ExtBa=13.60
27/09/2020,06:21:33,TEMP=7.3,BA=5.44,STAT.A,ExtBa=13.60
27/09/2020,06:29:08,TEMP=7.3,BA=5.44,STAT.A,ExtBa=13.60
27/09/2020,06:37:55,TEMP=7.3,BA=5.44,STAT.C,ExtBa=13.60
27/09/2020,06:48:14,TEMP=7.3,BA=5.52,STAT.A,ExtBa=13.60
27/09/2020,07:00:34,TEMP=7.3,BA=5.64,STAT.A,ExtBa=13.60
27/09/2020,07:15:42,TEMP=7.3,BA=5.64,STAT.A,ExtBa=13.60
27/09/2020,07:23:56,TEMP=7.3,BA=5.64,STAT.F,ExtBa=13.60
27/09/2020,07:38:54,TEMP=7.2,BA=5.64,STAT.D,ExtBa=13.60
27/09/2020,07:53:54,TEMP=7.3,BA=5.64,STAT.D,ExtBa=13.70
27/09/2020,08:08:54,TEMP=7.3,BA=5.64,STAT.D,ExtBa=13.60
27/09/2020,08:23:56,TEMP=7.6,BA=5.64,STAT.F,ExtBa=13.60
27/09/2020,08:38:54,TEMP=7.9,BA=5.64,STAT.D,ExtBa=13.70
27/09/2020,08:53:54,TEMP=8.2,BA=5.64,STAT.D,ExtBa=13.60
27/09/2020,09:08:54,TEMP=8.7,BA=5.64,STAT.D,ExtBa=13.60
27/09/2020,09:23:56,TEMP=9.1,BA=5.64,STAT.F,ExtBa=13.60
27/09/2020,09:34:58,TEMP=10.0,BA=5.44,STAT.b=15.0
27/09/2020,09:39:11,TEMP=9.7,BA=5.44,STAT.D,ExtBa=13.00
27/09/2020,09:53:54,TEMP=9.8,BA=5.64,STAT.D,ExtBa=13.40
27/09/2020,10:08:55,TEMP=10.1,BA=5.64,STAT.D,ExtBa=13.50
27/09/2020,10:23:56,TEMP=11.0,BA=5.64,STAT.F,ExtBa=13.60
27/09/2020,10:38:54,TEMP=10.9,BA=5.64,STAT.D,ExtBa=13.60
27/09/2020,10:53:54,TEMP=11.2,BA=5.64,STAT.D,ExtBa=13.70
27/09/2020,11:08:54,TEMP=11.8,BA=5.64,STAT.D,ExtBa=13.60
27/09/2020,11:23:56,TEMP=12.1,BA=5.64,STAT.F,ExtBa=13.60
27/09/2020,11:38:54,TEMP=11.8,BA=5.64,STAT.D,ExtBa=13.70
27/09/2020,11:53:54,TEMP=11.8,BA=5.64,STAT.D,ExtBa=13.70
27/09/2020,12:08:54,TEMP=11.4,BA=5.44,STAT.D,ExtBa=13.70
27/09/2020,12:23:56,TEMP=11.2,BA=5.64,STAT.F,ExtBa=13.70
27/09/2020,12:38:54,TEMP=11.5,BA=5.64,STAT.D,ExtBa=13.60
27/09/2020,12:53:54,TEMP=12.0,BA=5.64,STAT.D,ExtBa=13.60
27/09/2020,13:08:54,TEMP=12.2,BA=5.64,STAT.D,ExtBa=13.60
27/09/2020,13:23:55,TEMP=12.1,BA=5.64,STAT.F,ExtBa=13.70
27/09/2020,13:32:09,TEMP=12.1,BA=5.64,STAT.A,ExtBa=13.60
27/09/2020,13:47:16,TEMP=11.9,BA=5.64,STAT.A,ExtBa=13.60
27/09/2020,13:59:36,TEMP=11.8,BA=5.48,STAT.A,ExtBa=13.60
27/09/2020,14:09:55,TEMP=11.9,BA=5.44,STAT.C,ExtBa=13.60
27/09/2020,14:20:53,TEMP=12.7,BA=5.40,STAT.A,ExtBa=12.80
27/09/2020,14:26:17,TEMP=12.1,BA=5.40,STAT.A,ExtBa=13.00
27/09/2020,14:32:54,TEMP=12.0,BA=5.60,STAT.A,ExtBa=13.10
27/09/2020,14:38:44,TEMP=11.9,BA=5.60,STAT.A,ExtBa=13.20
27/09/2020,14:43:55,TEMP=12.0,BA=5.40,STAT.B,ExtBa=13.10
27/09/2020,14:54:43,TEMP=12.0,BA=5.64,STAT.A,ExtBa=13.20
27/09/2020,15:03:12,TEMP=11.8,BA=5.64,STAT.A,ExtBa=13.20
27/09/2020,15:10:03,TEMP=11.8,BA=5.64,STAT.A,ExtBa=13.20
27/09/2020,15:15:43,TEMP=11.6,BA=5.48,STAT.A,ExtBa=13.20
27/09/2020,15:20:28,TEMP=11.6,BA=5.64,STAT.A,ExtBa=13.00
27/09/2020,15:24:31,TEMP=11.5,BA=5.64,STAT.A,ExtBa=13.10